+ View the NASA Portal
+ Center for Near-Earth Object Studies
IMPORTANT:
The SSD Announcement email list is now available. Major changes are coming in the near future, including possible hostname and/or URL changes. To be notified of such changes, subscribe to this email list.
Please visit
this page
for more details.
Don't show this message again
JPL Small-Body Database Browser
Search:
[
help
]
214757 (2006 TD89)
Classification:
Main-belt Asteroid
SPK-ID:
2214757
[
Ephemeris
|
Orbit Diagram
|
Orbital Elements
|
Mission Design
|
Physical Parameters
|
Discovery Circumstances
|
Close-Approach Data
]
[ show orbit diagram ]
Orbital Elements at Epoch 2458600.5 (2019-Apr-27.0) TDB
Reference:
JPL 12
(heliocentric ecliptic J2000)
Element
Value
Uncertainty (1-sigma)
Units
e
.08417725792959774
6.9893e-08
a
3.111510271996027
4.0224e-08
au
q
2.849591869279625
2.2747e-07
au
i
7.709933672674505
6.6278e-06
deg
node
21.63787992594622
5.0389e-05
deg
peri
195.8131126094843
7.1028e-05
deg
M
285.7041205968445
5.4793e-05
deg
t
p
2459014.230475457649
(2020-Jun-13.73047546)
0.0003072
TDB
period
2004.727211808568
5.49
3.8874e-05
1.064e-07
d
yr
n
.1795755541599226
3.4822e-09
deg/d
Q
3.37342867471243
4.361e-08
au
Orbit Determination Parameters
# obs. used (total)
235
data-arc span
8509 days (23.30 yr)
first obs. used
1995-10-19
last obs. used
2019-02-04
planetary ephem.
DE431
SB-pert. ephem.
SB431-N16
condition code
0
norm. resid. RMS
.50993
source
ORB
producer
Otto Matic
solution date
2019-Jul-14 08:15:51
Additional Information
Earth MOID
= 1.84376 au
Jupiter MOID
= 1.59898 au
T_jup
= 3.199
[ show covariance matrix ]
[
Ephemeris
|
Orbit Diagram
|
Orbital Elements
|
Mission Design
|
Physical Parameters
|
Discovery Circumstances
|
Close-Approach Data
]
Physical Parameter Table
Parameter
Symbol
Value
Units
Sigma
Reference
Notes
absolute magnitude
H
15.5
n/a
MPO433404
214757 (2006 TD89)
Discovered 2006-Oct-13 by Spacewatch at Kitt Peak
Reference:
20090509/Numbers.arc
Last Updated:
2009-05-11
[ show close-approach data ]
Alternate Designations
2006 TD89
= 1995 UE24
[
Ephemeris
|
Orbit Diagram
|
Orbital Elements
|
Mission Design
|
Physical Parameters
|
Discovery Circumstances
|
Close-Approach Data
]
2019-Dec-06 11:05 UT
(server date/time)
Site Manager:
Ryan S. Park
Webmaster
:
Alan B. Chamberlin